TimeEST,TemperatureF,Dew PointF,Humidity,Sea Level PressureIn,VisibilityMPH,Wind Direction,Wind SpeedMPH,Gust SpeedMPH,PrecipitationIn,Events,Conditions,WindDirDegrees,DateUTC
12:15 AM,46.8,45.0,93,30.11,10.0,East,8.1,-,N/A,,Overcast,90,2012-12-07 05:15:00
12:35 AM,46.0,44.4,94,30.11,10.0,East,4.6,-,N/A,,Overcast,80,2012-12-07 05:35:00
12:55 AM,45.7,43.9,93,30.10,10.0,East,5.8,-,N/A,,Mostly Cloudy,90,2012-12-07 05:55:00
1:15 AM,45.1,43.7,95,30.10,10.0,East,6.9,-,N/A,,Scattered Clouds,90,2012-12-07 06:15:00
1:35 AM,44.6,43.0,94,30.09,10.0,East,8.1,-,N/A,,Clear,90,2012-12-07 06:35:00
1:55 AM,45.0,43.0,93,30.09,10.0,East,6.9,-,N/A,,Clear,80,2012-12-07 06:55:00
2:15 AM,45.1,43.2,93,30.09,10.0,East,5.8,-,N/A,,Clear,80,2012-12-07 07:15:00
2:35 AM,45.0,43.0,93,30.10,10.0,ENE,3.5,-,N/A,,Clear,70,2012-12-07 07:35:00
2:55 AM,44.8,42.8,93,30.09,10.0,East,4.6,-,N/A,,Mostly Cloudy,90,2012-12-07 07:55:00
3:15 AM,44.1,42.4,94,30.10,10.0,East,4.6,-,N/A,,Scattered Clouds,90,2012-12-07 08:15:00
3:35 AM,43.0,42.1,97,30.09,10.0,East,5.8,-,N/A,,Mostly Cloudy,100,2012-12-07 08:35:00
3:55 AM,43.0,41.9,96,30.09,10.0,East,8.1,-,N/A,,Scattered Clouds,90,2012-12-07 08:55:00
4:15 AM,43.7,41.4,91,30.09,10.0,ENE,3.5,-,N/A,,Clear,70,2012-12-07 09:15:00
4:35 AM,42.4,40.5,93,30.09,10.0,East,3.5,-,N/A,,Clear,90,2012-12-07 09:35:00
4:55 AM,42.4,41.0,95,30.09,10.0,Calm,Calm,-,0.01,,Clear,0,2012-12-07 09:55:00
5:15 AM,42.3,41.0,95,30.09,10.0,Calm,Calm,-,N/A,,Clear,0,2012-12-07 10:15:00
5:35 AM,40.8,40.6,99,30.09,10.0,East,3.5,-,N/A,,Clear,90,2012-12-07 10:35:00
5:55 AM,41.2,39.7,95,30.09,10.0,East,4.6,-,N/A,,Clear,100,2012-12-07 10:55:00
6:15 AM,41.2,40.3,97,30.09,10.0,East,4.6,-,N/A,,Scattered Clouds,100,2012-12-07 11:15:00
6:35 AM,41.4,40.5,97,30.09,10.0,SE,3.5,-,N/A,,Scattered Clouds,130,2012-12-07 11:35:00
6:55 AM,40.6,40.1,98,30.10,10.0,East,6.9,-,N/A,,Scattered Clouds,100,2012-12-07 11:55:00
7:15 AM,40.3,39.7,98,30.10,10.0,East,4.6,-,N/A,,Clear,100,2012-12-07 12:15:00
7:35 AM,41.4,40.6,97,30.10,10.0,ENE,4.6,-,N/A,,Scattered Clouds,70,2012-12-07 12:35:00
7:55 AM,41.9,40.3,94,30.10,10.0,East,5.8,-,N/A,,Scattered Clouds,90,2012-12-07 12:55:00
8:15 AM,42.4,40.6,93,30.10,10.0,East,6.9,-,N/A,,Scattered Clouds,80,2012-12-07 13:15:00
8:35 AM,43.2,41.0,92,30.10,10.0,East,3.5,-,N/A,,Scattered Clouds,100,2012-12-07 13:35:00
8:55 AM,44.1,41.9,92,30.10,10.0,East,4.6,-,N/A,,Overcast,90,2012-12-07 13:55:00
9:15 AM,45.0,42.1,90,30.10,10.0,East,5.8,-,N/A,,Overcast,90,2012-12-07 14:15:00
9:35 AM,45.7,42.8,90,30.10,10.0,ESE,4.6,-,N/A,,Overcast,110,2012-12-07 14:35:00
9:55 AM,47.5,43.7,87,30.10,10.0,East,4.6,-,N/A,,Overcast,80,2012-12-07 14:55:00
10:15 AM,49.3,44.6,84,30.10,10.0,East,4.6,-,N/A,,Overcast,90,2012-12-07 15:15:00
10:35 AM,50.9,45.3,81,30.09,10.0,East,5.8,-,N/A,,Mostly Cloudy,90,2012-12-07 15:35:00
10:55 AM,53.1,46.9,80,30.08,10.0,East,4.6,-,N/A,,Scattered Clouds,100,2012-12-07 15:55:00
11:15 AM,54.7,48.2,79,30.08,10.0,East,3.5,-,N/A,,Scattered Clouds,80,2012-12-07 16:15:00
11:35 AM,56.5,49.5,77,30.07,10.0,Calm,Calm,-,N/A,,Clear,0,2012-12-07 16:35:00
11:55 AM,57.7,50.0,75,30.06,10.0,Calm,Calm,-,N/A,,Clear,0,2012-12-07 16:55:00
12:15 PM,59.0,50.9,74,30.05,10.0,WNW,4.6,-,N/A,,Clear,300,2012-12-07 17:15:00
12:35 PM,59.0,50.5,73,30.05,10.0,Calm,Calm,-,N/A,,Clear,0,2012-12-07 17:35:00
1:15 PM,60.8,51.6,72,30.02,10.0,WSW,5.8,-,N/A,,Clear,250,2012-12-07 18:15:00
1:35 PM,62.1,52.2,70,30.02,10.0,West,6.9,-,N/A,,Clear,260,2012-12-07 18:35:00
2:15 PM,61.9,51.4,69,30.00,10.0,WNW,6.9,-,N/A,,Clear,290,2012-12-07 19:15:00
2:35 PM,62.2,51.3,67,29.99,10.0,West,5.8,-,N/A,,Clear,280,2012-12-07 19:35:00
2:55 PM,61.7,51.3,69,29.99,10.0,West,5.8,-,N/A,,Clear,280,2012-12-07 19:55:00
3:15 PM,61.9,51.4,69,29.99,10.0,WNW,5.8,-,N/A,,Clear,290,2012-12-07 20:15:00
3:35 PM,63.1,51.3,65,29.98,10.0,West,5.8,-,N/A,,Clear,280,2012-12-07 20:35:00
3:55 PM,62.6,51.1,66,29.98,10.0,WNW,4.6,-,N/A,,Clear,290,2012-12-07 20:55:00
4:15 PM,63.3,51.3,65,29.98,10.0,West,3.5,-,N/A,,Clear,270,2012-12-07 21:15:00
4:35 PM,62.1,50.7,66,29.98,10.0,West,3.5,-,N/A,,Clear,260,2012-12-07 21:35:00
4:55 PM,61.0,50.5,68,29.98,10.0,West,3.5,-,N/A,,Clear,280,2012-12-07 21:55:00
5:15 PM,59.9,50.5,71,29.98,10.0,Calm,Calm,-,N/A,,Clear,0,2012-12-07 22:15:00
5:35 PM,57.9,50.0,75,29.98,10.0,Calm,Calm,-,N/A,,Clear,0,2012-12-07 22:35:00
5:55 PM,55.9,49.5,79,29.97,10.0,Calm,Calm,-,N/A,,Clear,0,2012-12-07 22:55:00
6:15 PM,54.0,49.6,85,29.98,10.0,Calm,Calm,-,N/A,,Clear,0,2012-12-07 23:15:00
6:35 PM,52.9,48.9,86,29.98,10.0,Calm,Calm,-,N/A,,Clear,0,2012-12-07 23:35:00
6:55 PM,52.7,49.3,88,29.98,10.0,Calm,Calm,-,N/A,,Scattered Clouds,0,2012-12-07 23:55:00
7:15 PM,50.9,48.4,91,29.99,10.0,Calm,Calm,-,N/A,,Clear,0,2012-12-08 00:15:00
7:35 PM,50.7,48.2,91,29.98,10.0,Calm,Calm,-,N/A,,Clear,0,2012-12-08 00:35:00
7:55 PM,48.9,47.3,94,29.99,10.0,Calm,Calm,-,N/A,,Clear,0,2012-12-08 00:55:00
8:15 PM,49.1,47.8,95,29.99,10.0,Calm,Calm,-,N/A,,Clear,0,2012-12-08 01:15:00
8:35 PM,47.5,46.8,97,29.99,7.0,Calm,Calm,-,N/A,,Clear,0,2012-12-08 01:35:00
8:55 PM,48.4,48.0,99,29.99,10.0,Calm,Calm,-,N/A,,Clear,0,2012-12-08 01:55:00
9:15 PM,47.5,47.1,99,29.99,7.0,Calm,Calm,-,N/A,,Clear,0,2012-12-08 02:15:00
9:35 PM,48.2,48.0,99,29.99,7.0,Calm,Calm,-,N/A,,Scattered Clouds,0,2012-12-08 02:35:00
9:55 PM,46.4,46.4,100,29.99,7.0,Calm,Calm,-,N/A,,Scattered Clouds,0,2012-12-08 02:55:00
10:15 PM,46.9,46.9,100,29.99,7.0,Calm,Calm,-,N/A,,Mostly Cloudy,0,2012-12-08 03:15:00
10:35 PM,48.0,48.0,100,29.98,10.0,Calm,Calm,-,N/A,,Overcast,0,2012-12-08 03:35:00
10:55 PM,47.8,47.7,99,29.99,7.0,Calm,Calm,-,N/A,,Mostly Cloudy,0,2012-12-08 03:55:00
11:15 PM,48.6,48.4,99,29.99,10.0,Calm,Calm,-,N/A,,Mostly Cloudy,0,2012-12-08 04:15:00
11:35 PM,47.5,47.5,100,29.99,7.0,Calm,Calm,-,N/A,,Scattered Clouds,0,2012-12-08 04:35:00
11:55 PM,47.8,47.8,100,29.99,7.0,Calm,Calm,-,N/A,,Overcast,0,2012-12-08 04:55:00